Weather History for Cape Lisburne, AK

Change the Weather History Date:

Thursday, August 22, 2013

  Actual Average Record
Temperature  
Mean Temperature 40 °F -  
Max Temperature 42 °F 46 °F 66 °F (2007)
Min Temperature 39 °F 41 °F 37 °F (1996)
Degree Days  
Heating Degree Days 24    
Moisture  
Dew Point 38 °F    
Average Humidity 90    
Maximum Humidity 100    
Minimum Humidity 76    
Precipitation  
Precipitation 0.08 in - - ()
Sea Level Pressure  
Sea Level Pressure 29.75 in    
Wind  
Wind Speed 11 mph (East)    
Max Wind Speed 23 mph    
Max Gust Speed -    
Visibility 9 miles    
Events      
Averages and records for this station are not official NWS values.
T = Trace of Precipitation, MM = Missing Value Source: NWS Daily Summary

Daily Weather History Graph

Daily Weather History Graph

Search for Another Location

Airport:

Trip Planner

Search our weather history database for the weather conditions in past years. The results will help you decide how hot, cold, wet, or windy it might be!

Date:

Astronomy

Aug. 22, 2013 Rise Set
Actual Time 6:47 AM AKDT 11:23 PM AKDT
Civil Twilight 5:23 AM AKDT 12:45 AM AKDT
Nautical Twilight Sun does not rise Sun does not rise
Astronomical Twilight Sun does not rise Sun does not rise
Moon 10:23 PM AKDT (8/22) 10:28 AM AKDT (8/22)
Length of Visible Light 19h 21m
Length of Day
16h 35m
Waning Gibbous, 96% of the Moon is Illuminated
Aug 22
Waning Gibbous
Aug 28
Last Quarter
Sep 5
New
Sep 12
First Quarter
Sep 19
Full

Hourly Weather History & Observations

Time (AKDT) Temp. Windchill Dew Point Humidity Pressure Visibility Wind Dir Wind Speed Gust Speed Precip Events Conditions
12:55 AM 40.3 °F 36.3 °F 37.9 °F 91% 29.75 in 10.0 mi SE 5.8 mph - N/A   Mostly Cloudy
1:55 AM 39.9 °F 35.8 °F 37.9 °F 93% 29.75 in 10.0 mi SE 5.8 mph - N/A   Mostly Cloudy
2:55 AM 40.3 °F 34.9 °F 37.9 °F 91% 29.75 in 10.0 mi SE 8.1 mph - N/A   Overcast
3:55 AM 40.5 °F 35.1 °F 37.9 °F 91% 29.74 in 10.0 mi SE 8.1 mph - N/A   Overcast
4:55 AM 40.1 °F 34.7 °F 37.8 °F 91% 29.73 in 10.0 mi SE 8.1 mph - N/A   Mostly Cloudy
5:40 AM 39.2 °F 33.6 °F 37.4 °F 93% 29.73 in 10.0 mi SE 8.1 mph - N/A   Mostly Cloudy
5:55 AM 39.9 °F 34.5 °F 37.9 °F 93% 29.73 in 10.0 mi SE 8.1 mph - N/A   Mostly Cloudy
6:55 AM 39.6 °F 34.0 °F 38.1 °F 95% 29.73 in 10.0 mi SE 8.1 mph - N/A   Overcast
7:06 AM 39.2 °F 33.6 °F 39.2 °F 100% 29.73 in 10.0 mi SE 8.1 mph - N/A   Mostly Cloudy
7:55 AM 41.0 °F 35.8 °F 39.2 °F 93% 29.73 in 10.0 mi ESE 8.1 mph - N/A   Mostly Cloudy
8:55 AM 39.2 °F 33.6 °F 37.4 °F 93% 29.72 in 10.0 mi SE 8.1 mph - N/A   Mostly Cloudy
9:55 AM 41.0 °F 34.3 °F 37.4 °F 87% 29.73 in 10.0 mi East 11.5 mph - N/A   Mostly Cloudy
10:41 AM 41.0 °F 34.3 °F 37.4 °F 87% 29.73 in 10.0 mi ESE 11.5 mph - N/A   Mostly Cloudy
10:55 AM 41.0 °F 34.3 °F 37.4 °F 87% 29.73 in 10.0 mi East 11.5 mph - N/A   Mostly Cloudy
11:55 AM 41.0 °F 33.9 °F 37.4 °F 87% 29.73 in 10.0 mi East 12.7 mph - N/A   Overcast
12:55 PM 41.0 °F 32.8 °F 37.4 °F 87% 29.73 in 10.0 mi East 16.1 mph - N/A   Mostly Cloudy
1:55 PM 39.2 °F 30.8 °F 37.4 °F 93% 29.73 in 10.0 mi East 15.0 mph - N/A   Overcast
2:55 PM 41.0 °F 33.5 °F 37.4 °F 87% 29.74 in 10.0 mi ESE 13.8 mph - N/A   Overcast
3:55 PM 41.0 °F 33.9 °F 37.4 °F 87% 29.75 in 10.0 mi East 12.7 mph - N/A   Overcast
4:55 PM 40.5 °F 32.8 °F 36.9 °F 87% 29.75 in 10.0 mi East 13.8 mph - N/A   Overcast
5:24 PM 41.0 °F 33.5 °F 37.4 °F 87% 29.75 in 10.0 mi East 13.8 mph - N/A   Overcast
5:55 PM 41.0 °F 33.5 °F 37.8 °F 88% 29.75 in 10.0 mi East 13.8 mph - N/A   Overcast
6:55 PM 40.6 °F 32.3 °F 38.1 °F 91% 29.75 in 10.0 mi East 16.1 mph - N/A   Mostly Cloudy
7:49 PM 41.0 °F 32.2 °F 39.2 °F 93% 29.76 in 7.0 mi ENE 18.4 mph - N/A   Mostly Cloudy
7:55 PM 40.8 °F 32.6 °F 39.0 °F 93% 29.77 in 8.0 mi ENE 16.1 mph - N/A   Mostly Cloudy
8:34 PM 41.0 °F 32.2 °F 39.2 °F 93% 29.77 in 6.0 mi ENE 18.4 mph - N/A   Mostly Cloudy
8:55 PM 40.1 °F 30.7 °F 39.2 °F 97% 29.77 in 7.0 mi ENE 19.6 mph - N/A   Mostly Cloudy
9:55 PM 41.5 °F 32.9 °F 39.7 °F 93% 29.78 in 7.0 mi ENE 18.4 mph - N/A   Mostly Cloudy
10:19 PM 42.8 °F 34.0 °F 39.2 °F 87% 29.78 in 7.0 mi ENE 20.7 mph - N/A   Mostly Cloudy
10:44 PM 42.8 °F 34.0 °F 37.4 °F 81% 29.79 in 10.0 mi ENE 20.7 mph - N/A   Partly Cloudy
10:55 PM 42.4 °F 33.1 °F 36.9 °F 81% 29.79 in 10.0 mi ENE 23.0 mph - N/A   Clear
11:55 PM 42.4 °F 33.5 °F 35.2 °F 76% 29.81 in 10.0 mi ENE 20.7 mph - N/A   Clear